Weather History for KHCO - August, 2013

Change the Weather History Date:

Thursday, August 15, 2013

  Actual Average Record
Temperature  
Mean Temperature 63 °F -  
Max Temperature 78 °F 79 °F 95 °F (1961)
Min Temperature 48 °F 54 °F 37 °F (2003)
Degree Days  
Heating Degree Days 2    
Growing Degree Days 13 (Base 50)    
Moisture  
Dew Point 55 °F    
Average Humidity 72    
Maximum Humidity 100    
Minimum Humidity 42    
Precipitation  
Precipitation 0.00 in - - ()
Sea Level Pressure  
Sea Level Pressure 30.05 in    
Wind  
Wind Speed 6 mph (SSE)    
Max Wind Speed 10 mph    
Max Gust Speed -    
Visibility 10 miles    
Events      
Averages and records for this station are not official NWS values.
T = Trace of Precipitation, MM = Missing Value Source: NWS Daily Summary

Daily Weather History Graph

Daily Weather History Graph

Search for Another Location

Airport or City:

Trip Planner

Search our weather history database for the weather conditions in past years. The results will help you decide how hot, cold, wet, or windy it might be!

Date:

Astronomy

Aug. 15, 2013 Rise Set
Actual Time 6:21 AM CDT 8:42 PM CDT
Civil Twilight 5:46 AM CDT 9:16 PM CDT
Nautical Twilight 5:02 AM CDT 10:00 PM CDT
Astronomical Twilight 4:12 AM CDT 10:50 PM CDT
Moon 4:10 PM CDT (8/15) 12:23 AM CDT (8/15)
Length of Visible Light 15h 30m
Length of Day
14h 21m
Waxing Gibbous, 64% of the Moon is Illuminated
Aug 15
Waxing Gibbous
Aug 20
Full
Aug 28
Last Quarter
Sep 5
New
Sep 12
First Quarter

Hourly Weather History & Observations

Time (CDT) Temp. Dew Point Humidity Pressure Visibility Wind Dir Wind Speed Gust Speed Precip Events Conditions
12:13 AM 53.6 °F 51.8 °F 94% 30.06 in 10.0 mi SE 3.5 mph - N/A   Clear
12:33 AM 51.8 °F 50.0 °F 94% 30.06 in 10.0 mi Calm Calm - N/A   Clear
12:53 AM 51.8 °F 50.0 °F 94% 30.06 in 10.0 mi East 3.5 mph - N/A   Clear
1:13 AM 50.0 °F 48.2 °F 94% 30.06 in 10.0 mi SSE 3.5 mph - N/A   Clear
1:33 AM 51.8 °F 48.2 °F 88% 30.06 in 10.0 mi South 6.9 mph - N/A   Clear
1:53 AM 50.0 °F 48.2 °F 94% 30.07 in 10.0 mi SSE 5.8 mph - N/A   Clear
2:13 AM 51.8 °F 48.2 °F 88% 30.06 in 10.0 mi SSE 8.1 mph - N/A   Clear
2:33 AM 48.2 °F 48.2 °F 100% 30.07 in 10.0 mi East 3.5 mph - N/A   Clear
2:53 AM 53.6 °F 50.0 °F 88% 30.06 in 10.0 mi South 6.9 mph - N/A   Clear
3:13 AM 51.8 °F 48.2 °F 88% 30.06 in 10.0 mi South 6.9 mph - N/A   Clear
3:33 AM 48.2 °F 48.2 °F 100% 30.07 in 10.0 mi SSE 6.9 mph - N/A   Clear
3:53 AM 50.0 °F 48.2 °F 94% 30.06 in 10.0 mi SSE 6.9 mph - N/A   Clear
4:13 AM 50.0 °F 48.2 °F 94% 30.07 in 10.0 mi SSE 5.8 mph - N/A   Clear
4:33 AM 51.8 °F 48.2 °F 88% 30.06 in 10.0 mi SE 6.9 mph - N/A   Clear
4:53 AM 48.2 °F 46.4 °F 93% 30.07 in 10.0 mi South 5.8 mph - N/A   Clear
5:13 AM 48.2 °F 46.4 °F 93% 30.06 in 10.0 mi SSE 8.1 mph - N/A   Clear
5:33 AM 48.2 °F 46.4 °F 93% 30.06 in 10.0 mi SSE 8.1 mph - N/A   Clear
5:53 AM 48.2 °F 48.2 °F 100% 30.07 in 10.0 mi SSE 6.9 mph - N/A   Clear
6:13 AM 50.0 °F 48.2 °F 94% 30.06 in 10.0 mi SSE 8.1 mph - N/A   Clear
6:34 AM 51.8 °F 48.2 °F 88% 30.06 in 10.0 mi SE 8.1 mph - N/A   Clear
6:53 AM 51.8 °F 48.2 °F 88% 30.06 in 10.0 mi SE 8.1 mph - N/A   Clear
7:13 AM 51.8 °F 50.0 °F 94% 30.06 in 10.0 mi SSE 6.9 mph - N/A   Clear
7:34 AM 53.6 °F 51.8 °F 94% 30.06 in 10.0 mi SSE 8.1 mph - N/A   Clear
7:53 AM 55.4 °F 51.8 °F 88% 30.07 in 10.0 mi SSE 6.9 mph - N/A   Clear
8:13 AM 57.2 °F 53.6 °F 88% 30.07 in 10.0 mi SSE 5.8 mph - N/A   Clear
8:34 AM 60.8 °F 55.4 °F 82% 30.07 in 10.0 mi South 4.6 mph - N/A   Clear
8:53 AM 62.6 °F 57.2 °F 82% 30.07 in 10.0 mi SSE 4.6 mph - N/A   Clear
9:13 AM 64.4 °F 57.2 °F 77% 30.07 in 10.0 mi SSE 4.6 mph - N/A   Clear
9:34 AM 66.2 °F 57.2 °F 73% 30.06 in 10.0 mi SSE 5.8 mph - N/A   Clear
9:53 AM 68.0 °F 55.4 °F 64% 30.07 in 10.0 mi South 6.9 mph - N/A   Clear
10:13 AM 69.8 °F 55.4 °F 60% 30.07 in 10.0 mi SSE 6.9 mph - N/A   Clear
10:33 AM 71.6 °F 55.4 °F 57% 30.07 in 10.0 mi SSE 8.1 mph - N/A   Clear
10:53 AM 73.4 °F 55.4 °F 53% 30.07 in 10.0 mi SSE 6.9 mph - N/A   Scattered Clouds
11:13 AM 73.4 °F 55.4 °F 53% 30.06 in 10.0 mi South 8.1 mph - N/A   Overcast
11:33 AM 75.2 °F 53.6 °F 47% 30.06 in 10.0 mi South 6.9 mph - N/A   Scattered Clouds
11:53 AM 75.2 °F 53.6 °F 47% 30.06 in 10.0 mi South 6.9 mph - N/A   Mostly Cloudy
12:13 PM 75.2 °F 51.8 °F 44% 30.06 in 10.0 mi South 6.9 mph - N/A   Overcast
12:33 PM 75.2 °F 51.8 °F 44% 30.07 in 10.0 mi South 5.8 mph - N/A   Overcast
12:53 PM 75.2 °F 53.6 °F 47% 30.07 in 10.0 mi South 5.8 mph - N/A   Overcast
1:13 PM 75.2 °F 53.6 °F 47% 30.06 in 10.0 mi South 6.9 mph - N/A   Overcast
1:33 PM 75.2 °F 51.8 °F 44% 30.06 in 10.0 mi South 6.9 mph - N/A   Mostly Cloudy
1:53 PM 75.2 °F 53.6 °F 47% 30.06 in 10.0 mi SSE 5.8 mph - N/A   Overcast
2:13 PM 75.2 °F 57.2 °F 53% 30.06 in 10.0 mi South 5.8 mph - N/A   Overcast
2:33 PM 75.2 °F 55.4 °F 50% 30.06 in 10.0 mi South 5.8 mph - N/A   Mostly Cloudy
2:53 PM 77.0 °F 53.6 °F 44% 30.05 in 10.0 mi South 6.9 mph - N/A   Mostly Cloudy
3:13 PM 77.0 °F 53.6 °F 44% 30.04 in 10.0 mi South 6.9 mph - N/A   Overcast
3:33 PM 78.8 °F 53.6 °F 42% 30.04 in 10.0 mi SSW 10.4 mph - N/A   Overcast
3:53 PM 78.8 °F 55.4 °F 44% 30.04 in 10.0 mi SSW 9.2 mph - N/A   Scattered Clouds
4:13 PM 78.8 °F 55.4 °F 44% 30.03 in 10.0 mi South 9.2 mph - N/A   Scattered Clouds
4:33 PM 78.8 °F 57.2 °F 47% 30.03 in 10.0 mi South 8.1 mph - N/A   Scattered Clouds
4:54 PM 78.8 °F 55.4 °F 44% 30.03 in 10.0 mi SSE 6.9 mph - N/A   Scattered Clouds
5:13 PM 78.8 °F 57.2 °F 47% 30.03 in 10.0 mi SSW 5.8 mph - N/A   Scattered Clouds
5:33 PM 77.0 °F 57.2 °F 50% 30.03 in 10.0 mi South 4.6 mph - N/A   Scattered Clouds
5:53 PM 78.8 °F 57.2 °F 47% 30.04 in 10.0 mi SSE 5.8 mph - N/A   Mostly Cloudy
6:13 PM 78.8 °F 60.8 °F 54% 30.03 in 10.0 mi SSW 3.5 mph - N/A   Mostly Cloudy
6:33 PM 77.0 °F 60.8 °F 57% 30.04 in 10.0 mi SSE 3.5 mph - N/A   Overcast
6:53 PM 77.0 °F 60.8 °F 57% 30.03 in 10.0 mi SSE 4.6 mph - N/A   Mostly Cloudy
7:13 PM 75.2 °F 62.6 °F 65% 30.03 in 10.0 mi South 4.6 mph - N/A   Scattered Clouds
7:33 PM 75.2 °F 62.6 °F 65% 30.03 in 10.0 mi SSE 3.5 mph - N/A   Clear
7:53 PM 73.4 °F 64.4 °F 73% 30.03 in 10.0 mi SE 4.6 mph - N/A   Clear
8:13 PM 71.6 °F 64.4 °F 78% 30.03 in 10.0 mi SE 5.8 mph - N/A   Scattered Clouds
8:33 PM 69.8 °F 62.6 °F 78% 30.03 in 10.0 mi SE 5.8 mph - N/A   Mostly Cloudy
8:54 PM 69.8 °F 62.6 °F 78% 30.03 in 10.0 mi SE 5.8 mph - N/A   Mostly Cloudy
9:13 PM 69.8 °F 60.8 °F 73% 30.03 in 10.0 mi SE 6.9 mph - N/A   Mostly Cloudy
9:33 PM 69.8 °F 60.8 °F 73% 30.03 in 10.0 mi SE 8.1 mph - N/A   Scattered Clouds
9:54 PM 66.2 °F 60.8 °F 83% 30.04 in 10.0 mi SE 6.9 mph - N/A   Clear
10:13 PM 66.2 °F 60.8 °F 83% 30.04 in 10.0 mi SE 8.1 mph - N/A   Mostly Cloudy
10:33 PM 66.2 °F 60.8 °F 83% 30.04 in 10.0 mi SE 6.9 mph - N/A   Scattered Clouds
10:54 PM 64.4 °F 60.8 °F 88% 30.04 in 10.0 mi SE 8.1 mph - N/A   Clear
11:13 PM 64.4 °F 60.8 °F 88% 30.04 in 10.0 mi SE 6.9 mph - N/A   Scattered Clouds
11:33 PM 64.4 °F 60.8 °F 88% 30.04 in 10.0 mi SE 6.9 mph - N/A   Mostly Cloudy
11:54 PM 62.6 °F 60.8 °F 94% 30.04 in 10.0 mi SE 8.1 mph - N/A   Scattered Clouds